GW7057 Weather Reports


time (UTC)temp
F
wind
direction
speed
knots
gust
knots
rain 1hr
in
rain 24hr
in
rain mn
in
humidity
%
barometer
mb
20260502195045 49 206 0.9 4.3 0.00 0.13 0.13 93 1007.8
20260502194542 49 249 1.7 2.6 0.00 0.13 0.13 93 1007.7
20260502194038 49 255 1.7 2.6 0.00 0.13 0.13 94 1007.7
20260502193535 48 92 2.6 2.6 0.02 0.13 0.13 94 1007.8
20260502193032 47 346 0.0 3.5 0.09 0.13 0.13 93 1008.0
20260502192528 48 211 0.9 1.7 0.17 0.12 0.12 93 1008.0
20260502192026 47 260 2.6 2.6 0.26 0.11 0.11 92 1008.1
20260502191522 47 332 1.7 4.3 0.19 0.09 0.09 90 1008.0
20260502191020 48 217 0.9 2.6 0.02 0.06 0.06 89 1008.1
20260502190517 48 353 0.9 1.7 0.02 0.06 0.06 87 1007.9
20260502190014 48 44 0.0 2.6 0.05 0.05 0.05 86 1008.0
20260502185509 49 356 1.7 3.5 0.05 0.05 0.05 84 1008.1
20260502185006 50 1 2.6 3.5 0.00 0.04 0.04 79 1008.0
20260502184501 51 220 0.0 2.6 0.00 0.04 0.04 77 1007.9
20260502183958 53 42 1.7 1.7 0.00 0.04 0.04 76 1007.7
20260502183455 53 192 0.9 2.6 0.00 0.04 0.04 73 1007.6
20260502182949 53 178 1.7 6.1 0.00 0.04 0.04 72 1007.9
20260502182445 54 128 1.7 5.2 0.00 0.04 0.04 69 1007.5
20260502181942 55 333 0.9 5.2 0.00 0.04 0.04 69 1007.7
20260502181440 55 218 2.6 2.6 0.00 0.04 0.04 71 1007.9
20260502180938 54 121 2.6 4.3 0.00 0.04 0.04 69 1007.9
20260502180435 54 188 4.3 4.3 0.00 0.04 0.04 69 1007.6
20260502170354 52 131 1.7 5.2 0.00 0.04 0.04 70 1008.1
20260502164341 53 159 2.6 4.3 0.00 0.04 0.04 75 1008.3
20260502163837 52 82 2.6 4.3 0.00 0.04 0.04 76 1008.3
20260502163333 52 163 0.0 7.0 0.00 0.04 0.04 77 1008.2
20260502162831 52 126 1.7 2.6 0.00 0.04 0.04 80 1008.3
20260502162328 51 150 3.5 4.3 0.00 0.04 0.04 82 1008.5
20260502161825 51 137 1.7 4.3 0.00 0.04 0.04 80 1008.4
20260502161321 51 117 2.6 5.2 0.00 0.04 0.04 82 1008.4
20260502160819 51 157 2.6 5.2 0.00 0.04 0.04 82 1008.7
20260502160318 50 139 1.7 2.6 0.00 0.04 0.04 85 1008.6
20260502152247 50 144 2.6 5.2 0.00 0.04 0.04 84 1009.1
20260502151744 49 133 1.7 4.3 0.00 0.04 0.04 84 1009.0
20260502151241 50 108 3.5 5.2 0.00 0.04 0.04 85 1009.1
20260502150739 50 114 2.6 3.5 0.00 0.04 0.04 85 1009.0
20260502150235 50 94 1.7 2.6 0.00 0.04 0.04 85 1009.0
20260502130624 49 53 0.0 2.6 0.00 0.04 0.04 92 1009.0
20260502130122 48 140 0.9 1.7 0.00 0.04 0.04 94 1009.0
20260502123607 46 107 3.5 4.3 0.02 0.04 0.04 94 1009.8
20260502123103 46 100 2.6 2.6 0.00 0.04 0.04 94 1009.8
20260502122600 46 103 0.9 1.7 0.00 0.04 0.04 94 1009.8
20260502122057 46 102 2.6 2.6 0.02 0.04 0.04 94 1009.7
20260502121555 46 122 1.7 2.6 0.02 0.04 0.04 94 1009.9
20260502121052 46 122 0.0 1.7 0.02 0.04 0.04 94 1009.7
20260502120548 46 105 0.9 1.7 0.02 0.04 0.04 95 1009.7
20260502115544 46 145 0.9 3.5 0.05 0.03 0.03 95 1010.0
20260502115039 46 181 1.7 2.6 0.05 0.03 0.03 94 1009.7
20260502114536 46 132 0.0 0.9 0.00 0.02 0.02 94 1009.7
20260502114032 46 313 0.0 1.7 0.00 0.02 0.02 94 1009.6
20260502113530 46 167 0.0 0.9 0.00 0.02 0.02 95 1009.6
20260502113029 46 242 0.0 1.7 0.00 0.02 0.02 94 1009.5
20260502112526 46 291 0.9 1.7 0.00 0.02 0.02 94 1009.5
20260502112023 46 224 0.0 1.7 0.00 0.02 0.02 94 1009.4
20260502111521 46 25 0.0 0.9 0.00 0.02 0.02 94 1009.1
20260502111018 45 80 1.7 1.7 0.00 0.02 0.02 95 1008.8
20260502110515 45 83 0.9 1.7 0.00 0.02 0.02 94 1008.9
20260502110013 45 93 1.7 2.6 0.00 0.02 0.02 94 1008.9
20260502105510 45 91 1.7 1.7 0.00 0.02 0.02 94 1009.0
20260502105008 45 49 1.7 1.7 0.02 0.02 0.02 94 1009.2
20260502104504 45 283 0.0 1.7 0.02 0.02 0.02 93 1009.2
20260502104002 45 158 0.0 0.9 0.02 0.02 0.02 93 1009.3
20260502103459 45 58 0.0 0.9 0.00 0.01 0.01 93 1009.0
20260502102956 45 88 0.0 1.7 0.00 0.01 0.01 93 1009.0
20260502102453 45 116 0.9 0.9 0.02 0.01 0.01 93 1008.8
20260502101950 45 73 0.0 0.9 0.02 0.01 0.01 93 1008.8
20260502101448 45 97 1.7 1.7 0.00 0.01 0.01 93 1008.8
20260502100946 45 140 0.0 1.7 0.00 0.01 0.01 93 1009.0
20260502100445 45 135 0.0 1.7 0.00 0.01 0.01 93 1008.8
20260502091420 45 110 0.9 1.7 0.00 0.00 0.00 91 1008.5
20260502090916 45 93 1.7 1.7 0.00 0.00 0.00 91 1008.3
20260502090414 45 86 1.7 1.7 0.00 0.00 0.00 91 1008.3
20260502071308 46 86 1.7 2.6 0.00 0.00 0.00 79 1008.4
20260502070807 46 89 1.7 1.7 0.00 0.00 0.00 78 1008.5
20260502070304 46 87 1.7 1.7 0.00 0.00 0.00 78 1008.4
20260502065802 46 98 0.9 1.7 0.00 0.00 0.00 78 1008.6
20260502065300 47 86 1.7 3.5 0.00 0.00 0.00 77 1008.3
20260502064758 47 102 3.5 3.5 0.00 0.00 0.00 78 1008.7
20260502064255 47 123 2.6 2.6 0.00 0.00 0.00 78 1008.6
20260502063753 47 107 0.9 1.7 0.00 0.00 0.00 77 1008.6
20260502063251 47 85 0.9 1.7 0.00 0.00 0.00 76 1008.6
20260502062747 47 78 0.9 1.7 0.00 0.00 0.00 75 1008.5
20260502062245 47 39 0.9 1.7 0.00 0.00 0.00 75 1009.0
20260502061743 47 107 0.9 1.7 0.00 0.00 0.00 75 1009.0
20260502061241 47 93 1.7 1.7 0.00 0.00 0.00 75 1008.9
20260502060736 47 106 0.0 1.7 0.00 0.00 0.00 74 1009.1
20260502060232 47 107 3.5 3.5 0.00 0.00 0.00 73 1009.1
20260502055730 48 94 1.7 1.7 0.00 0.00 0.00 73 1008.8
20260502055227 48 96 1.7 1.7 0.00 0.00 0.00 72 1008.8
20260502054726 48 58 0.0 2.6 0.00 0.00 0.00 70 1009.0
20260502054224 48 216 0.0 1.7 0.00 0.00 0.00 69 1009.1
20260502053721 48 86 1.7 1.7 0.00 0.00 0.00 68 1009.0
20260502053218 49 115 1.7 1.7 0.00 0.00 0.00 68 1008.8
20260502052716 49 138 1.7 2.6 0.00 0.00 0.00 67 1009.0
20260502052214 49 109 1.7 1.7 0.00 0.00 0.00 67 1009.0
20260502051712 49 111 2.6 2.6 0.00 0.00 0.00 67 1009.1
20260502051210 49 117 1.7 2.6 0.00 0.00 0.00 66 1009.0
20260502050706 49 117 1.7 2.6 0.00 0.00 0.00 65 1009.0
20260502050202 49 103 1.7 2.6 0.00 0.00 0.00 65 1009.1
20260502045659 49 120 1.7 4.3 0.00 0.00 0.00 65 1008.8
20260502045156 49 130 2.6 3.5 0.00 0.00 0.00 64 1009.0
20260502044653 49 108 1.7 2.6 0.00 0.00 0.00 64 1009.0
20260502044149 49 120 1.7 2.6 0.00 0.00 0.00 64 1008.8
20260502043647 49 104 2.6 4.3 0.00 0.00 0.00 63 1008.8
20260502043144 49 99 1.7 2.6 0.00 0.00 0.00 62 1009.0
20260502042643 50 103 1.7 3.5 0.00 0.00 0.00 61 1009.0
20260502042141 50 100 1.7 1.7 0.00 0.00 0.00 61 1009.0
20260502041638 50 92 0.9 1.7 0.00 0.00 0.00 61 1009.0
20260502041135 50 155 0.9 2.6 0.00 0.00 0.00 61 1009.1
20260502040632 50 125 1.7 3.5 0.00 0.00 0.00 60 1009.0
20260502040129 50 114 0.9 1.7 0.00 0.00 0.00 60 1008.9
20260502035625 50 114 1.7 2.6 0.00 0.00 0.00 59 1009.2
20260502035122 50 102 0.9 1.7 0.00 0.00 0.00 59 1009.2
20260502034620 51 89 1.7 1.7 0.00 0.00 0.00 59 1009.1
20260502034119 51 112 0.0 0.9 0.00 0.00 0.00 58 1009.3
20260502033616 51 96 0.9 1.7 0.00 0.00 0.00 57 1009.3
20260502033114 51 112 2.6 2.6 0.00 0.00 0.00 57 1009.2
20260502032614 52 121 1.7 3.5 0.00 0.00 0.00 56 1009.0
20260502032111 52 136 3.5 3.5 0.00 0.00 0.00 55 1009.2
20260502031609 52 144 1.7 3.5 0.00 0.00 0.00 55 1009.2
20260502031107 52 139 1.7 1.7 0.00 0.00 0.00 56 1009.1
20260502030606 52 183 1.7 3.5 0.00 0.00 0.00 54 1009.2
20260502025600 52 201 1.7 3.5 0.00 0.00 0.00 53 1009.0
20260502025058 52 220 0.9 3.5 0.00 0.00 0.00 52 1009.2
20260502024555 52 221 1.7 2.6 0.00 0.00 0.00 51 1008.9
20260502024053 52 228 1.7 2.6 0.00 0.00 0.00 50 1009.1
20260502023551 53 116 0.0 1.7 0.00 0.00 0.00 50 1009.0
20260502023048 53 219 0.9 1.7 0.00 0.00 0.00 48 1009.2
20260502022544 53 207 1.7 3.5 0.00 0.00 0.00 47 1009.0
20260502022042 53 195 1.7 1.7 0.00 0.00 0.00 49 1009.1
20260502021539 53 205 0.9 3.5 0.00 0.00 0.00 48 1009.0
20260502021036 53 217 3.5 3.5 0.00 0.00 0.00 47 1009.1
20260502020534 53 231 2.6 4.3 0.00 0.00 0.00 47 1009.0
20260502020031 52 202 2.6 5.2 0.00 0.00 0.00 49 1009.3
20260502015529 51 207 2.6 3.5 0.00 0.00 0.00 50 1009.1
20260502015024 50 185 1.7 6.1 0.00 0.00 0.00 56 1009.1
20260502014522 49 178 3.5 3.5 0.00 0.00 0.00 60 1009.0
20260502014019 49 213 0.9 1.7 0.00 0.00 0.00 62 1009.0
20260502013514 49 209 1.7 1.7 0.00 0.00 0.00 61 1009.0
20260502013010 49 124 0.0 0.0 0.00 0.00 0.00 62 1008.8
20260502012508 49 147 0.0 0.0 0.00 0.00 0.00 56 1008.7
20260502012006 49 150 0.0 0.9 0.00 0.00 0.00 57 1008.9
20260502011502 49 135 0.0 0.0 0.00 0.00 0.00 56 1008.8
20260502010959 50 103 0.0 0.9 0.00 0.00 0.00 50 1008.7
20260502010455 50 89 0.9 0.9 0.00 0.00 0.00 51 1008.5
20260502005951 50 83 0.9 1.7 0.00 0.00 0.00 54 1008.4
20260502005449 50 124 0.0 0.9 0.00 0.00 0.00 54 1008.4
20260502004948 50 215 0.0 0.9 0.00 0.00 0.00 53 1008.5
20260502004443 51 202 0.9 1.7 0.00 0.00 0.00 49 1008.1
20260502003940 51 147 0.0 0.9 0.00 0.00 0.00 48 1008.4
20260502003438 52 218 0.0 0.9 0.00 0.00 0.00 49 1008.3
20260502002933 52 179 0.9 1.7 0.00 0.00 0.00 46 1008.2
20260502002431 52 157 0.0 0.0 0.00 0.00 0.00 43 1008.2
20260502001928 53 110 0.0 0.0 0.00 0.00 0.00 41 1007.9
20260502001426 53 89 0.0 0.0 0.00 0.00 0.00 40 1007.9
20260502000923 53 89 0.0 0.0 0.00 0.00 0.00 41 1007.7
20260502000424 53 89 0.0 0.0 0.00 0.00 0.00 40 1007.8
20260501235917 53 336 0.0 0.9 0.00 0.00 0.00 38 1007.6
20260501235413 53 84 0.9 0.9 0.00 0.00 0.00 40 1007.8
20260501234908 54 102 0.9 0.9 0.00 0.00 0.00 40 1007.6
20260501234405 54 51 0.0 0.9 0.00 0.00 0.00 40 1007.5
20260501233904 55 103 0.0 0.9 0.00 0.00 0.00 38 1007.6
20260501233401 56 55 0.0 0.0 0.00 0.00 0.00 38 1007.5
20260501232856 56 89 0.0 0.9 0.00 0.00 0.00 38 1007.5
20260501232354 57 136 0.0 0.9 0.00 0.00 0.00 36 1007.5
20260501231851 57 226 0.9 1.7 0.00 0.00 0.00 35 1007.2
20260501231349 58 230 0.0 1.7 0.00 0.00 0.00 35 1007.0
20260501230847 58 279 1.7 2.6 0.00 0.00 0.00 32 1007.0
20260501230346 58 143 0.0 2.6 0.00 0.00 0.00 33 1007.0
20260501225843 59 13 0.9 1.7 0.00 0.00 0.00 33 1006.8
20260501225341 60 358 1.7 4.3 0.00 0.00 0.00 32 1006.8
20260501224837 61 40 0.9 4.3 0.00 0.00 0.00 31 1006.9
20260501224335 62 244 2.6 3.5 0.00 0.00 0.00 31 1006.8
20260501223831 62 279 1.7 4.3 0.00 0.00 0.00 29 1006.9
20260501223326 62 252 0.0 0.9 0.00 0.00 0.00 30 1007.0
20260501222822 61 218 5.2 7.8 0.00 0.00 0.00 28 1006.8
20260501222320 62 210 7.8 9.6 0.00 0.00 0.00 28 1006.9
20260501221817 62 269 0.0 1.7 0.00 0.00 0.00 33 1006.8
20260501221314 62 232 3.5 4.3 0.00 0.00 0.00 29 1007.0
20260501220812 62 226 0.0 3.5 0.00 0.00 0.00 29 1006.9
20260501220309 61 91 2.6 4.3 0.00 0.00 0.00 30 1006.9
20260501215806 61 216 4.3 6.1 0.00 0.00 0.00 30 1006.9
20260501215305 61 206 3.5 6.1 0.00 0.00 0.00 32 1006.9
20260501214756 61 223 2.6 7.8 0.00 0.00 0.00 32 1006.7
20260501214253 62 202 4.3 5.2 0.00 0.00 0.00 29 1006.8
20260501213749 62 235 5.2 5.2 0.00 0.00 0.00 29 1006.7
20260501213245 62 149 2.6 4.3 0.00 0.00 0.00 29 1006.7
20260501212742 62 329 5.2 6.1 0.00 0.00 0.00 28 1006.8
20260501212238 63 153 2.6 5.2 0.00 0.00 0.00 28 1006.8
20260501211735 63 243 1.7 3.5 0.00 0.00 0.00 32 1006.8
20260501211232 63 204 4.3 4.3 0.00 0.00 0.00 29 1006.7
20260501210729 63 266 0.9 3.5 0.00 0.00 0.00 30 1006.6
20260501210226 63 65 2.6 4.3 0.00 0.00 0.00 28 1006.6
20260501205722 63 356 3.5 7.8 0.00 0.00 0.00 27 1006.8
20260501205219 62 342 0.0 4.3 0.00 0.00 0.00 30 1006.6
20260501204717 63 267 4.3 8.7 0.00 0.00 0.00 27 1006.7
20260501204213 62 211 4.3 11.3 0.00 0.00 0.00 30 1006.5
20260501203709 62 217 3.5 7.0 0.00 0.00 0.00 31 1006.4
20260501203207 62 295 3.5 5.2 0.00 0.00 0.00 29 1006.5
20260501202704 63 27 1.7 5.2 0.00 0.00 0.00 29 1006.5
20260501202200 63 317 3.5 4.3 0.00 0.00 0.00 28 1006.6
20260501201657 63 260 1.7 4.3 0.00 0.00 0.00 30 1006.4
20260501201154 62 307 3.5 9.6 0.00 0.00 0.00 28 1006.4
20260501200650 61 185 2.6 6.1 0.00 0.00 0.00 29 1006.5
20260501200148 63 204 4.3 9.6 0.00 0.00 0.00 28 1006.3
20260501195645 62 235 2.6 5.2 0.00 0.00 0.00 32 1006.6
20260501195141 63 53 1.7 5.2 0.00 0.00 0.00 29 1006.4